This demonstration page uses our WeatherBlox Daily Observations layout. Learn more.

Left ArrowRight Arrow

Hourly Observations for July 17, 2018

Temp ( °F °C ) Dew Point ( °F °C ) Humidity (%) Winds ( mph kmh ) Pressure ( in mb ) Visibility ( mi km ) Precip ( " mm )
12:15 am 00:15 Clear 75 23.9 71 21.8 88 88 ESE 9 15 29.97 1015 10 16 N/A
12:35 am 00:35 Clear 75 24 71 21.8 88 88 E 8 13 29.94 1014 10 16 N/A
12:55 am 00:55 Clear 74 23.5 71 21.8 90 90 E 7 11 29.97 1015 10 16 N/A
1:15 am 01:15 Partly Cloudy with Nearby Thunderstorms 73 23 71 21.6 92 92 E 10 17 29.97 1015 7 11 N/A
1:35 am 01:35 Cloudy with Nearby Thunderstorms 74 23.5 71 21.6 89 89 ESE 8 13 29.97 1015 10 16 N/A
1:55 am 01:55 Partly Cloudy 74 23.5 70 21.1 86 86 ESE 9 15 29.97 1015 10 16 N/A
2:15 am 02:15 Clear 74 23.5 70 21 86 86 ESE 10 17 29.97 1015 10 16 N/A
2:35 am 02:35 Clear with Nearby Thunderstorms 74 23.1 70 21 88 88 ESE 9 15 29.97 1015 10 16 N/A
2:55 am 02:55 Mostly Cloudy with Light Rain 73 23 70 21.2 90 90 ESE 12 19 29.94 1014 7 11 N/A
3:15 am 03:15 Cloudy with Thunderstorms 74 23.2 71 21.7 91 91 ESE 12 19 29.97 1015 7 11 N/A
3:35 am 03:35 Cloudy with Light Rain 74 23.2 71 21.6 91 91 E 10 17 29.97 1015 7 11 0.02 0.51
3:55 am 03:55 Cloudy with Nearby Thunderstorms 70 21.1 67 19.4 90 90 NE 20 31 30.00 1016 5 8 0.13 3.30
4:15 am 04:15 Cloudy with Thunderstorms 70 21.1 66 19 88 88 NNW 8 13 30.03 1017 10 16 0.02 0.51
4:35 am 04:35 Cloudy with Nearby Thunderstorms 68 20.1 66 18.8 92 92 WNW 12 19 30.06 1018 7 11 0.06 1.52
4:55 am 04:55 Cloudy with Nearby Thunderstorms 68 19.9 65 18.6 92 92 WSW 8 13 30.06 1018 7 11 0.08 2.03
5:15 am 05:15 Cloudy 68 20 66 18.8 93 93 W 10 17 30.06 1018 7 11 0.06 1.52
5:35 am 05:35 Cloudy with Nearby Thunderstorms 68 20 66 19 94 94 NW 7 11 30.06 1018 7 11 0.08 2.03
5:55 am 05:55 Cloudy with Nearby Thunderstorms 68 19.8 66 18.7 93 93 N 8 13 30.03 1017 5 8 0.19 4.83
6:15 am 06:15 Mostly Cloudy with Rain 67 19.6 65 18.5 93 93 E 9 15 29.97 1015 10 16 0.06 1.52
6:35 am 06:35 Mostly Cloudy with Light Rain 67 19.4 65 18.2 93 93 NE 9 15 29.97 1015 10 16 0.07 1.78
6:55 am 06:55 Mostly Cloudy 66 19.1 64 18 93 93 NNW 8 13 30.00 1016 10 16 0.08 2.03
7:15 am 07:15 Mostly Cloudy 66 19 64 17.7 92 92 N N/A 29.97 1015 10 16 N/A
7:35 am 07:35 Mostly Cloudy 67 19.2 64 18 93 93 S 7 11 29.97 1015 10 16 N/A
7:55 am 07:55 Mostly Cloudy 67 19.5 65 18.3 93 93 N N/A 29.97 1015 10 16 N/A
8:15 am 08:15 Cloudy 68 19.8 66 18.7 93 93 NE 10 17 30.03 1017 10 16 N/A
8:35 am 08:35 Cloudy 69 20.5 65 18.3 87 87 NE 13 20 30.03 1017 10 16 N/A
8:55 am 08:55 Cloudy 71 21.4 67 19.2 87 87 NE 13 20 30.00 1016 10 16 N/A
9:15 am 09:15 Mostly Cloudy 72 22 67 19.6 86 86 ENE 14 22 30.00 1016 10 16 N/A
9:35 am 09:35 Partly Cloudy 73 22.9 68 20.1 84 84 ENE 14 22 30.00 1016 10 16 N/A
9:55 am 09:55 Partly Cloudy 74 23.4 69 20.4 83 83 ENE 12 19 30.00 1016 10 16 N/A
10:15 am 10:15 Partly Cloudy 74 23.5 69 20.6 84 84 ENE 10 17 30.00 1016 10 16 N/A
10:35 am 10:35 Mostly Cloudy 76 24.3 70 20.9 81 81 ENE 12 19 29.97 1015 10 16 N/A
10:55 am 10:55 Mostly Cloudy 77 24.8 69 20.6 78 78 ENE 10 17 29.97 1015 10 16 N/A
11:15 am 11:15 Mostly Cloudy 77 25.1 69 20.4 75 75 E 8 13 29.97 1015 10 16 N/A
11:35 am 11:35 Partly Cloudy 78 25.6 69 20.5 73 73 E 8 13 29.97 1015 10 16 N/A
11:55 am 11:55 Mostly Cloudy 80 26.4 70 21.2 73 73 NE 8 13 29.97 1015 10 16 N/A
12:15 pm 12:15 Mostly Cloudy 80 26.5 70 20.9 71 71 ENE 8 13 29.97 1015 10 16 N/A
12:35 pm 12:35 Partly Cloudy 79 26.2 69 20.5 71 71 ENE 10 17 29.97 1015 10 16 N/A
12:55 pm 12:55 Mostly Cloudy 81 27.1 69 20.6 68 68 ENE 9 15 29.97 1015 10 16 N/A
1:15 pm 13:15 Partly Cloudy 81 27 69 20.3 67 67 NE 5 7 29.97 1015 10 16 N/A
1:35 pm 13:35 Partly Cloudy 82 27.5 69 20.3 65 65 E 3 6 29.97 1015 10 16 N/A
1:55 pm 13:55 Partly Cloudy 82 27.7 69 20.6 65 65 ENE 9 15 29.97 1015 10 16 N/A
2:15 pm 14:15 Partly Cloudy 82 27.5 70 21 68 68 E 8 13 29.97 1015 10 16 N/A
2:35 pm 14:35 Mostly Cloudy 82 27.8 70 21 67 67 ENE 7 11 29.97 1015 10 16 N/A
2:55 pm 14:55 Partly Cloudy 83 28.1 69 20.5 63 63 E 8 13 29.94 1014 10 16 N/A
3:15 pm 15:15 Partly Cloudy 83 28.3 68 20.2 62 62 ENE 5 7 29.94 1014 10 16 N/A
3:35 pm 15:35 Mostly Cloudy 81 27.4 69 20.8 67 67 E 7 11 29.97 1015 10 16 N/A
3:55 pm 15:55 Partly Cloudy 84 28.7 68 20.1 60 60 E 10 17 29.94 1014 10 16 N/A
4:15 pm 16:15 Partly Cloudy 81 27.3 68 20.2 65 65 ENE 7 11 29.97 1015 10 16 N/A
4:35 pm 16:35 Partly Cloudy 83 28.1 70 20.9 65 65 ENE 10 17 29.94 1014 10 16 N/A
4:55 pm 16:55 Sunny 82 27.9 70 21.2 67 67 E 9 15 29.91 1013 10 16 N/A
5:15 pm 17:15 Sunny 83 28.1 70 21 65 65 ESE 10 17 29.91 1013 10 16 N/A
5:35 pm 17:35 Partly Cloudy 82 28 69 20.7 65 65 E 10 17 29.91 1013 10 16 N/A
5:55 pm 17:55 Partly Cloudy 79 26.1 69 20.4 71 71 E 8 13 29.94 1014 10 16 N/A
6:15 pm 18:15 Partly Cloudy 81 27.2 68 20 65 65 ESE 9 15 29.94 1014 10 16 N/A
6:35 pm 18:35 Partly Cloudy 81 27.4 68 20.1 64 64 SE 8 13 29.94 1014 10 16 N/A
6:55 pm 18:55 Sunny 81 27.2 67 19.5 63 63 SSE 8 13 29.94 1014 10 16 N/A
7:15 pm 19:15 Mostly Cloudy 81 27 68 19.8 65 65 ESE 8 13 29.94 1014 10 16 N/A
7:35 pm 19:35 Mostly Cloudy 79 26 67 19.6 68 68 SE 10 17 29.94 1014 10 16 N/A
7:55 pm 19:55 Partly Cloudy 77 25.2 67 19.5 71 71 E 10 17 29.94 1014 10 16 N/A
8:15 pm 20:15 Sunny 77 25.2 67 19.6 71 71 ESE 8 13 29.94 1014 10 16 N/A
8:35 pm 20:35 Sunny 76 24.5 68 19.8 75 75 E 7 11 29.94 1014 10 16 N/A
8:55 pm 20:55 Sunny 75 24.1 68 20.1 78 78 E 7 11 29.94 1014 10 16 N/A
9:15 pm 21:15 Clear 75 23.9 68 20.2 80 80 ESE 7 11 29.97 1015 10 16 N/A
9:35 pm 21:35 Clear 74 23.3 68 20.1 82 82 ESE 5 7 29.97 1015 10 16 N/A
9:55 pm 21:55 Clear 73 22.9 68 20 84 84 ESE 6 9 29.97 1015 10 16 N/A
10:15 pm 22:15 Clear 72 22.1 68 19.9 87 87 E 5 7 29.97 1015 10 16 N/A
10:35 pm 22:35 Clear 73 22.5 67 19.7 84 84 E 7 11 29.97 1015 10 16 N/A
10:55 pm 22:55 Clear 72 22.4 67 19.3 83 83 E 8 13 30.00 1016 10 16 N/A
11:15 pm 23:15 Clear 72 22 67 19.2 84 84 ESE 7 11 30.00 1016 10 16 N/A
11:35 pm 23:35 Clear 71 21.6 67 19.2 86 86 E 8 13 29.97 1015 10 16 N/A
11:55 pm 23:55 Clear 70 21.3 66 19.1 87 87 ESE 6 9 30.00 1016 10 16 N/A

Powered by AerisWeather